^^
Station Historical Data
 
Daily Summary for October 17, 2017 Units:  English    Metric   Both
« Previous Day
Next Day »
Daily Weekly Monthly Yearly Custom
  Current: High: Low: Average:
Temperature: 69.1 °F 78.8 °F 53.8 °F 64.2 °F
Dew Point: 50.2 °F 54.0 °F 48.1 °F 51.1 °F
Humidity: 51% 93% 38% 66%
Wind Speed: 0.0mph 7.2mph 0.0mph 2.2mph
Wind Gust: 11.5mph 11.5mph - -
WindCalm - - SSE
Pressure: 30.17 in 30.25 in 30.14 in -
Precipitation: 0.00 in      
Historical Graphs
 
 
Tabular Data for October 17, 2017
Time Temperature Dew Point Pressure Wind Wind Speed Wind Gust Humidity Rainfall Rate (Hourly) solar Conditions
00:01 57.2 °F 50.7 °F 30.14 in NNE 3.1 mph 11.5 mph 79% 0.00 in WeatherDisplay:10.37 W/m2 CLR
00:06 57.2 °F 50.7 °F 30.14 in NNE 1.0 mph 11.5 mph 79% 0.00 in WeatherDisplay:10.37 W/m2 CLR
00:11 57.0 °F 50.5 °F 30.14 in NNW 2.8 mph 11.5 mph 79% 0.00 in WeatherDisplay:10.37 W/m2 CLR
00:16 56.8 °F 50.4 °F 30.14 in West 3.3 mph 11.5 mph 79% 0.00 in WeatherDisplay:10.37 W/m2 CLR
00:21 56.8 °F 50.4 °F 30.14 in West 1.9 mph 11.5 mph 79% 0.00 in WeatherDisplay:10.37 W/m2 CLR
00:26 56.8 °F 50.0 °F 30.14 in NW 3.3 mph 11.5 mph 78% 0.00 in WeatherDisplay:10.37 W/m2 CLR
00:31 56.7 °F 49.9 °F 30.14 in Calm   11.5 mph 78% 0.00 in WeatherDisplay:10.37 W/m2 CLR
00:36 56.7 °F 50.3 °F 30.14 in Calm   11.5 mph 79% 0.00 in WeatherDisplay:10.37 W/m2 CLR
00:42 56.5 °F 50.1 °F 30.14 in SSW 2.3 mph 11.5 mph 79% 0.00 in WeatherDisplay:10.37 W/m2 CLR
00:47 56.5 °F 50.1 °F 30.14 in WSW 0.3 mph 11.5 mph 79% 0.00 in WeatherDisplay:10.37 W/m2 CLR
00:52 56.3 °F 49.9 °F 30.14 in WSW 1.7 mph 11.5 mph 79% 0.00 in WeatherDisplay:10.37 W/m2 CLR
01:02 56.1 °F 49.7 °F 30.14 in North 2.2 mph 11.5 mph 79% 0.00 in WeatherDisplay:10.37 W/m2 CLR
01:07 56.1 °F 49.7 °F 30.14 in NW 0.3 mph 11.5 mph 79% 0.00 in WeatherDisplay:10.37 W/m2 CLR
01:12 56.1 °F 49.3 °F 30.14 in WNW 2.1 mph 11.5 mph 78% 0.00 in WeatherDisplay:10.37 W/m2 CLR
01:18 56.1 °F 49.3 °F 30.14 in WNW 2.6 mph 11.5 mph 78% 0.00 in WeatherDisplay:10.37 W/m2 CLR
01:23 56.1 °F 49.7 °F 30.14 in NNW 0.8 mph 11.5 mph 79% 0.00 in WeatherDisplay:10.37 W/m2 CLR
01:28 56.1 °F 49.7 °F 30.14 in NE 2.0 mph 11.5 mph 79% 0.00 in WeatherDisplay:10.37 W/m2 CLR
01:33 56.1 °F 49.7 °F 30.14 in NNW 1.5 mph 11.5 mph 79% 0.00 in WeatherDisplay:10.37 W/m2 CLR
01:38 56.1 °F 50.0 °F 30.14 in Calm   11.5 mph 80% 0.00 in WeatherDisplay:10.37 W/m2 CLR
01:43 55.9 °F 50.2 °F 30.14 in Calm   11.5 mph 81% 0.00 in WeatherDisplay:10.37 W/m2 CLR
01:48 55.8 °F 49.7 °F 30.14 in NNW 2.4 mph 11.5 mph 80% 0.00 in WeatherDisplay:10.37 W/m2 CLR
01:53 55.8 °F 50.1 °F 30.14 in Calm   11.5 mph 81% 0.00 in WeatherDisplay:10.37 W/m2 CLR
01:58 55.8 °F 50.1 °F 30.14 in East 1.2 mph 11.5 mph 81% 0.00 in WeatherDisplay:10.37 W/m2 CLR
02:04 55.6 °F 49.9 °F 30.14 in Calm   11.5 mph 81% 0.00 in WeatherDisplay:10.37 W/m2 CLR
02:09 55.6 °F 50.2 °F 30.14 in Calm   11.5 mph 82% 0.00 in WeatherDisplay:10.37 W/m2 CLR
02:14 55.4 °F 50.0 °F 30.14 in Calm   11.5 mph 82% 0.00 in WeatherDisplay:10.37 W/m2 CLR
02:19 55.4 °F 50.3 °F 30.14 in Calm   11.5 mph 83% 0.00 in WeatherDisplay:10.37 W/m2 CLR
02:24 55.4 °F 50.3 °F 30.14 in South 1.3 mph 11.5 mph 83% 0.00 in WeatherDisplay:10.37 W/m2 CLR
02:29 55.4 °F 50.6 °F 30.14 in SE 0.3 mph 11.5 mph 84% 0.00 in WeatherDisplay:10.37 W/m2 CLR
02:34 55.2 °F 50.8 °F 30.14 in Calm   11.5 mph 85% 0.00 in WeatherDisplay:10.37 W/m2 CLR
02:39 55.0 °F 50.6 °F 30.14 in South 1.6 mph 11.5 mph 85% 0.00 in WeatherDisplay:10.37 W/m2 CLR
02:45 55.2 °F 50.8 °F 30.14 in SSW 1.6 mph 11.5 mph 85% 0.00 in WeatherDisplay:10.37 W/m2 CLR
02:50 55.0 °F 50.9 °F 30.14 in South 0.5 mph 11.5 mph 86% 0.00 in WeatherDisplay:10.37 W/m2 CLR
02:55 55.0 °F 50.6 °F 30.14 in SE 1.8 mph 11.5 mph 85% 0.00 in WeatherDisplay:10.37 W/m2 CLR
03:00 55.0 °F 50.9 °F 30.14 in SE 1.6 mph 11.5 mph 86% 0.00 in WeatherDisplay:10.37 W/m2 CLR
03:05 54.9 °F 51.1 °F 30.14 in Calm   11.5 mph 87% 0.00 in WeatherDisplay:10.37 W/m2 CLR
03:11 54.9 °F 51.1 °F 30.14 in South 1.3 mph 11.5 mph 87% 0.00 in WeatherDisplay:10.37 W/m2 CLR
03:16 54.9 °F 51.4 °F 30.14 in Calm   11.5 mph 88% 0.00 in WeatherDisplay:10.37 W/m2 CLR
03:21 54.7 °F 51.2 °F 30.14 in SE 1.3 mph 11.5 mph 88% 0.00 in WeatherDisplay:10.37 W/m2 CLR
03:26 54.7 °F 51.5 °F 30.14 in SSE 1.2 mph 11.5 mph 89% 0.00 in WeatherDisplay:10.37 W/m2 CLR
03:31 54.7 °F 51.5 °F 30.14 in Calm   11.5 mph 89% 0.00 in WeatherDisplay:10.37 W/m2 CLR
03:36 54.7 °F 51.5 °F 30.14 in Calm   11.5 mph 89% 0.00 in WeatherDisplay:10.37 W/m2 CLR
03:41 54.7 °F 51.8 °F 30.14 in Calm   11.5 mph 90% 0.00 in WeatherDisplay:10.37 W/m2 CLR
03:46 54.5 °F 51.9 °F 30.14 in Calm   11.5 mph 91% 0.00 in WeatherDisplay:10.37 W/m2 CLR
03:51 54.3 °F 51.7 °F 30.14 in South 2.2 mph 11.5 mph 91% 0.00 in WeatherDisplay:10.37 W/m2 CLR
03:57 54.5 °F 51.9 °F 30.14 in WNW 0.7 mph 11.5 mph 91% 0.00 in WeatherDisplay:10.37 W/m2 CLR
04:02 54.5 °F 51.9 °F 30.14 in Calm   11.5 mph 91% 0.00 in WeatherDisplay:10.37 W/m2 CLR
04:07 54.7 °F 52.1 °F 30.14 in SE 0.5 mph 11.5 mph 91% 0.00 in WeatherDisplay:10.37 W/m2 CLR
04:12 54.7 °F 52.4 °F 30.14 in Calm   11.5 mph 92% 0.00 in WeatherDisplay:10.37 W/m2 CLR
04:17 54.7 °F 52.4 °F 30.14 in SSE 0.1 mph 11.5 mph 92% 0.00 in WeatherDisplay:10.37 W/m2 CLR
04:22 54.9 °F 52.6 °F 30.14 in SW 1.9 mph 11.5 mph 92% 0.00 in WeatherDisplay:10.37 W/m2 CLR
04:27 54.9 °F 52.6 °F 30.14 in South 0.2 mph 11.5 mph 92% 0.00 in WeatherDisplay:10.37 W/m2 CLR
04:32 55.0 °F 52.4 °F 30.14 in Calm   11.5 mph 91% 0.00 in WeatherDisplay:10.37 W/m2 CLR
04:38 55.0 °F 52.4 °F 30.15 in ENE 1.3 mph 11.5 mph 91% 0.00 in WeatherDisplay:10.37 W/m2 CLR
04:43 55.0 °F 52.4 °F 30.15 in SE 0.8 mph 11.5 mph 91% 0.00 in WeatherDisplay:10.37 W/m2 CLR
04:48 55.0 °F 52.4 °F 30.15 in ENE 1.8 mph 11.5 mph 91% 0.00 in WeatherDisplay:10.37 W/m2 CLR
04:53 55.4 °F 52.8 °F 30.16 in Calm   11.5 mph 91% 0.00 in WeatherDisplay:10.37 W/m2 CLR
04:58 55.4 °F 52.8 °F 30.16 in SE 1.8 mph 11.5 mph 91% 0.00 in WeatherDisplay:10.37 W/m2 CLR
05:03 55.0 °F 52.4 °F 30.16 in SE 0.3 mph 11.5 mph 91% 0.00 in WeatherDisplay:10.37 W/m2 CLR
05:08 55.0 °F 52.7 °F 30.16 in Calm   11.5 mph 92% 0.00 in WeatherDisplay:10.37 W/m2 CLR
05:13 54.9 °F 52.6 °F 30.16 in Calm   11.5 mph 92% 0.00 in WeatherDisplay:10.37 W/m2 CLR
05:18 54.9 °F 52.6 °F 30.16 in SE 1.2 mph 11.5 mph 92% 0.00 in WeatherDisplay:10.37 W/m2 CLR
05:24 54.9 °F 52.6 °F 30.16 in SE 1.8 mph 11.5 mph 92% 0.00 in WeatherDisplay:10.37 W/m2 CLR
05:29 54.7 °F 52.4 °F 30.17 in SSE 1.2 mph 11.5 mph 92% 0.00 in WeatherDisplay:10.37 W/m2 CLR
05:34 54.7 °F 52.4 °F 30.17 in South 2.5 mph 11.5 mph 92% 0.00 in WeatherDisplay:10.37 W/m2 CLR
05:39 54.7 °F 52.4 °F 30.17 in SE 1.6 mph 11.5 mph 92% 0.00 in WeatherDisplay:10.37 W/m2 CLR
05:44 54.5 °F 52.5 °F 30.17 in Calm   11.5 mph 93% 0.00 in WeatherDisplay:10.37 W/m2 CLR
05:49 54.5 °F 52.5 °F 30.17 in South 1.8 mph 11.5 mph 93% 0.00 in WeatherDisplay:10.37 W/m2 CLR
05:54 54.5 °F 52.5 °F 30.18 in SSE 1.2 mph 11.5 mph 93% 0.00 in WeatherDisplay:10.37 W/m2 CLR
05:59 54.3 °F 52.3 °F 30.18 in Calm   11.5 mph 93% 0.00 in WeatherDisplay:10.37 W/m2 CLR
06:05 54.1 °F 52.1 °F 30.18 in SE 0.2 mph 11.5 mph 93% 0.00 in WeatherDisplay:10.37 W/m2 CLR
06:10 54.0 °F 52.0 °F 30.18 in Calm   11.5 mph 93% 0.00 in WeatherDisplay:10.37 W/m2 CLR
06:15 54.0 °F 51.7 °F 30.18 in SE 1.0 mph 11.5 mph 92% 0.00 in WeatherDisplay:10.37 W/m2 CLR
06:20 54.1 °F 51.8 °F 30.18 in Calm   11.5 mph 92% 0.00 in WeatherDisplay:10.37 W/m2 CLR
06:25 54.0 °F 51.7 °F 30.18 in SE 0.8 mph 11.5 mph 92% 0.00 in WeatherDisplay:10.37 W/m2 CLR
06:30 54.0 °F 51.7 °F 30.19 in Calm   11.5 mph 92% 0.00 in WeatherDisplay:10.37 W/m2 CLR
06:35 54.0 °F 52.0 °F 30.19 in SE 0.2 mph 11.5 mph 93% 0.00 in WeatherDisplay:10.37 W/m2 CLR
06:40 54.0 °F 51.4 °F 30.19 in ESE 1.6 mph 11.5 mph 91% 0.00 in WeatherDisplay:10.37 W/m2 CLR
06:46 54.0 °F 51.4 °F 30.19 in ESE 1.4 mph 11.5 mph 91% 0.00 in WeatherDisplay:10.37 W/m2 CLR
06:51 54.0 °F 51.4 °F 30.20 in Calm   11.5 mph 91% 0.00 in WeatherDisplay:10.37 W/m2 CLR
06:56 54.0 °F 51.1 °F 30.20 in SE 1.9 mph 11.5 mph 90% 0.00 in WeatherDisplay:10.37 W/m2 CLR
07:01 54.0 °F 51.1 °F 30.20 in SE 1.7 mph 11.5 mph 90% 0.00 in WeatherDisplay:10.37 W/m2 CLR
07:06 54.0 °F 50.8 °F 30.20 in ESE 0.8 mph 11.5 mph 89% 0.00 in WeatherDisplay:10.37 W/m2 CLR
07:11 53.8 °F 50.6 °F 30.20 in Calm   11.5 mph 89% 0.00 in WeatherDisplay:10.37 W/m2 CLR
07:16 54.1 °F 50.6 °F 30.20 in Calm   11.5 mph 88% 0.00 in WeatherDisplay:10.37 W/m2 CLR
07:21 55.6 °F 51.2 °F 30.20 in Calm   11.5 mph 85% 0.00 in WeatherDisplay:10.37 W/m2 CLR
07:26 56.5 °F 50.7 °F 30.20 in ESE 2.9 mph 11.5 mph 81% 0.00 in WeatherDisplay:10.37 W/m2 CLR
07:32 57.2 °F 50.4 °F 30.20 in ESE 3.7 mph 11.5 mph 78% 0.00 in WeatherDisplay:10.37 W/m2 CLR
07:37 57.7 °F 50.5 °F 30.21 in ESE 2.6 mph 11.5 mph 77% 0.00 in WeatherDisplay:10.37 W/m2 CLR
07:42 58.5 °F 50.2 °F 30.21 in ESE 2.5 mph 11.5 mph 74% 0.00 in WeatherDisplay:10.37 W/m2 CLR
07:47 59.2 °F 50.9 °F 30.21 in ESE 1.4 mph 11.5 mph 74% 0.00 in WeatherDisplay:10.37 W/m2 CLR
07:53 59.5 °F 50.8 °F 30.22 in SE 2.7 mph 11.5 mph 73% 0.00 in WeatherDisplay:10.37 W/m2 CLR
07:58 59.7 °F 51.4 °F 30.22 in ESE 2.0 mph 11.5 mph 74% 0.00 in WeatherDisplay:10.37 W/m2 CLR
08:03 59.7 °F 51.0 °F 30.22 in ESE 2.2 mph 11.5 mph 73% 0.00 in WeatherDisplay:10.37 W/m2 CLR
08:08 59.9 °F 51.2 °F 30.22 in SE 1.2 mph 11.5 mph 73% 0.00 in WeatherDisplay:10.37 W/m2 CLR
08:13 59.5 °F 50.8 °F 30.22 in East 1.5 mph 11.5 mph 73% 0.00 in WeatherDisplay:10.37 W/m2 CLR
08:18 59.4 °F 50.4 °F 30.23 in ESE 3.0 mph 11.5 mph 72% 0.00 in WeatherDisplay:10.37 W/m2 CLR
08:23 59.7 °F 50.7 °F 30.23 in ESE 3.8 mph 11.5 mph 72% 0.00 in WeatherDisplay:10.37 W/m2 CLR
08:28 60.1 °F 50.3 °F 30.23 in ESE 4.1 mph 11.5 mph 70% 0.00 in WeatherDisplay:10.37 W/m2 CLR
08:33 60.6 °F 50.4 °F 30.23 in ESE 3.1 mph 11.5 mph 69% 0.00 in WeatherDisplay:10.37 W/m2 CLR
08:39 60.8 °F 50.6 °F 30.23 in East 2.3 mph 11.5 mph 69% 0.00 in WeatherDisplay:10.37 W/m2 CLR
08:44 61.2 °F 50.6 °F 30.23 in East 6.2 mph 11.5 mph 68% 0.00 in WeatherDisplay:10.37 W/m2 CLR
08:49 61.3 °F 50.6 °F 30.23 in East 5.7 mph 11.5 mph 68% 0.00 in WeatherDisplay:10.37 W/m2 CLR
08:54 61.9 °F 50.8 °F 30.24 in East 3.2 mph 11.5 mph 67% 0.00 in WeatherDisplay:10.37 W/m2 CLR
08:59 61.9 °F 50.4 °F 30.24 in East 4.4 mph 11.5 mph 66% 0.00 in WeatherDisplay:10.37 W/m2 CLR
09:04 62.1 °F 50.2 °F 30.24 in East 4.5 mph 11.5 mph 65% 0.00 in WeatherDisplay:10.37 W/m2 CLR
09:09 62.4 °F 50.5 °F 30.24 in ESE 3.5 mph 11.5 mph 65% 0.00 in WeatherDisplay:10.37 W/m2 CLR
09:14 62.8 °F 50.4 °F 30.25 in East 4.1 mph 11.5 mph 64% 0.00 in WeatherDisplay:10.37 W/m2 CLR
09:19 63.1 °F 50.3 °F 30.25 in East 4.0 mph 11.5 mph 63% 0.00 in WeatherDisplay:10.37 W/m2 CLR
09:25 63.7 °F 50.4 °F 30.25 in East 3.3 mph 11.5 mph 62% 0.00 in WeatherDisplay:10.37 W/m2 CLR
09:30 64.2 °F 50.0 °F 30.25 in East 5.2 mph 11.5 mph 60% 0.00 in WeatherDisplay:10.37 W/m2 CLR
09:35 64.0 °F 49.8 °F 30.25 in ESE 4.3 mph 11.5 mph 60% 0.00 in WeatherDisplay:10.37 W/m2 CLR
09:40 64.6 °F 50.4 °F 30.24 in ESE 3.6 mph 11.5 mph 60% 0.00 in WeatherDisplay:10.37 W/m2 CLR
09:45 64.4 °F 50.2 °F 30.24 in East 4.9 mph 11.5 mph 60% 0.00 in WeatherDisplay:10.37 W/m2 CLR
09:50 65.1 °F 51.3 °F 30.24 in East 4.6 mph 11.5 mph 61% 0.00 in WeatherDisplay:10.37 W/m2 CLR
09:55 65.7 °F 51.4 °F 30.24 in East 2.5 mph 11.5 mph 60% 0.00 in WeatherDisplay:10.37 W/m2 CLR
10:00 66.4 °F 50.7 °F 30.24 in ESE 2.5 mph 11.5 mph 57% 0.00 in WeatherDisplay:10.37 W/m2 CLR
10:05 67.5 °F 51.2 °F 30.25 in East 3.3 mph 11.5 mph 56% 0.00 in WeatherDisplay:10.37 W/m2 CLR
10:11 67.5 °F 51.2 °F 30.25 in East 4.5 mph 11.5 mph 56% 0.00 in WeatherDisplay:10.37 W/m2 CLR
10:16 67.8 °F 51.0 °F 30.25 in East 4.0 mph 11.5 mph 55% 0.00 in WeatherDisplay:10.37 W/m2 CLR
10:21 68.4 °F 50.6 °F 30.25 in East 5.4 mph 11.5 mph 53% 0.00 in WeatherDisplay:10.37 W/m2 CLR
10:25 68.5 °F 51.2 °F 30.25 in ESE 2.0 mph 11.5 mph 54% 0.00 in WeatherDisplay:10.37 W/m2 CLR
10:30 68.9 °F 51.1 °F 30.25 in East 5.2 mph 11.5 mph 53% 0.00 in WeatherDisplay:10.37 W/m2 CLR
10:35 69.1 °F 51.2 °F 30.25 in East 5.2 mph 11.5 mph 53% 0.00 in WeatherDisplay:10.37 W/m2 CLR
10:40 69.3 °F 51.4 °F 30.25 in East 4.0 mph 11.5 mph 53% 0.00 in WeatherDisplay:10.37 W/m2 CLR
10:45 70.7 °F 51.7 °F 30.25 in ESE 4.5 mph 11.5 mph 51% 0.00 in WeatherDisplay:10.37 W/m2 CLR
10:51 70.5 °F 52.5 °F 30.25 in ESE 4.3 mph 11.5 mph 53% 0.00 in WeatherDisplay:10.37 W/m2 CLR
10:56 71.1 °F 52.0 °F 30.25 in ESE 2.7 mph 11.5 mph 51% 0.00 in WeatherDisplay:10.37 W/m2 CLR
11:01 71.1 °F 52.0 °F 30.25 in East 3.4 mph 11.5 mph 51% 0.00 in WeatherDisplay:10.37 W/m2 CLR
11:06 71.4 °F 51.8 °F 30.25 in East 3.4 mph 11.5 mph 50% 0.00 in WeatherDisplay:10.37 W/m2 CLR
11:11 71.1 °F 51.5 °F 30.25 in East 6.2 mph 11.5 mph 50% 0.00 in WeatherDisplay:10.37 W/m2 CLR
11:16 72.5 °F 53.3 °F 30.24 in East 2.3 mph 11.5 mph 51% 0.00 in WeatherDisplay:10.37 W/m2 CLR
11:21 71.6 °F 52.0 °F 30.24 in East 3.6 mph 11.5 mph 50% 0.00 in WeatherDisplay:10.37 W/m2 CLR
11:26 72.3 °F 52.1 °F 30.24 in SSE 4.9 mph 11.5 mph 49% 0.00 in WeatherDisplay:10.37 W/m2 CLR
11:31 73.6 °F 53.8 °F 30.24 in East 3.4 mph 11.5 mph 50% 0.00 in WeatherDisplay:10.37 W/m2 CLR
11:37 73.4 °F 53.1 °F 30.24 in East 2.8 mph 11.5 mph 49% 0.00 in WeatherDisplay:10.37 W/m2 CLR
11:42 74.7 °F 53.1 °F 30.24 in ESE 5.1 mph 11.5 mph 47% 0.00 in WeatherDisplay:10.37 W/m2 CLR
11:47 76.1 °F 53.8 °F 30.24 in ESE 5.5 mph 11.5 mph 46% 0.00 in WeatherDisplay:10.37 W/m2 CLR
11:52 73.8 °F 51.7 °F 30.23 in ENE 4.4 mph 11.5 mph 46% 0.00 in WeatherDisplay:10.37 W/m2 CLR
11:57 75.2 °F 53.6 °F 30.23 in Calm   11.5 mph 47% 0.00 in WeatherDisplay:10.37 W/m2 CLR
12:02 75.6 °F 52.8 °F 30.23 in SE 4.1 mph 11.5 mph 45% 0.00 in WeatherDisplay:10.37 W/m2 CLR
12:07 75.6 °F 53.4 °F 30.23 in West 3.3 mph 11.5 mph 46% 0.00 in WeatherDisplay:10.37 W/m2 CLR
12:13 73.9 °F 51.8 °F 30.23 in NNW 4.3 mph 11.5 mph 46% 0.00 in WeatherDisplay:10.37 W/m2 CLR
12:18 74.1 °F 52.0 °F 30.23 in East 6.1 mph 11.5 mph 46% 0.00 in WeatherDisplay:10.37 W/m2 CLR
12:23 74.7 °F 53.1 °F 30.23 in East 4.1 mph 11.5 mph 47% 0.00 in WeatherDisplay:10.37 W/m2 CLR
12:28 74.3 °F 52.2 °F 30.23 in East 4.1 mph 11.5 mph 46% 0.00 in WeatherDisplay:10.37 W/m2 CLR
12:33 75.2 °F 53.0 °F 30.23 in East 2.5 mph 11.5 mph 46% 0.00 in WeatherDisplay:10.37 W/m2 CLR
12:38 77.0 °F 54.0 °F 30.22 in SE 1.3 mph 11.5 mph 45% 0.00 in WeatherDisplay:10.37 W/m2 CLR
12:43 77.5 °F 51.9 °F 30.22 in WSW 3.5 mph 11.5 mph 41% 0.00 in WeatherDisplay:10.37 W/m2 CLR
12:48 75.2 °F 51.8 °F 30.22 in ENE 3.5 mph 11.5 mph 44% 0.00 in WeatherDisplay:10.37 W/m2 CLR
12:53 76.1 °F 52.6 °F 30.22 in East 2.8 mph 11.5 mph 44% 0.00 in WeatherDisplay:10.37 W/m2 CLR
12:59 77.7 °F 53.4 °F 30.22 in NE 2.8 mph 11.5 mph 43% 0.00 in WeatherDisplay:10.37 W/m2 CLR
13:04 77.2 °F 53.0 °F 30.21 in East 4.5 mph 11.5 mph 43% 0.00 in WeatherDisplay:10.37 W/m2 CLR
13:09 77.7 °F 52.8 °F 30.21 in SE 3.7 mph 11.5 mph 42% 0.00 in WeatherDisplay:10.37 W/m2 CLR
13:14 76.5 °F 51.7 °F 30.20 in ESE 5.4 mph 11.5 mph 42% 0.00 in WeatherDisplay:10.37 W/m2 CLR
13:19 76.6 °F 52.4 °F 30.20 in ESE 2.8 mph 11.5 mph 43% 0.00 in WeatherDisplay:10.37 W/m2 CLR
13:24 76.3 °F 51.5 °F 30.20 in ESE 3.6 mph 11.5 mph 42% 0.00 in WeatherDisplay:10.37 W/m2 CLR
13:29 76.6 °F 51.8 °F 30.20 in ESE 3.3 mph 11.5 mph 42% 0.00 in WeatherDisplay:10.37 W/m2 CLR
13:34 77.7 °F 52.1 °F 30.20 in ESE 3.7 mph 11.5 mph 41% 0.00 in WeatherDisplay:10.37 W/m2 CLR
13:40 76.5 °F 51.0 °F 30.19 in ESE 7.2 mph 11.5 mph 41% 0.00 in WeatherDisplay:10.37 W/m2 CLR
13:45 76.3 °F 50.9 °F 30.19 in ESE 3.1 mph 11.5 mph 41% 0.00 in WeatherDisplay:10.37 W/m2 CLR
13:50 75.9 °F 49.8 °F 30.19 in ESE 2.9 mph 11.5 mph 40% 0.00 in WeatherDisplay:10.37 W/m2 CLR
13:55 75.4 °F 49.4 °F 30.19 in ESE 5.4 mph 11.5 mph 40% 0.00 in WeatherDisplay:10.37 W/m2 CLR
14:00 77.7 °F 51.5 °F 30.19 in ESE 2.3 mph 11.5 mph 40% 0.00 in WeatherDisplay:10.37 W/m2 CLR
14:05 77.0 °F 50.8 °F 30.19 in East 1.5 mph 11.5 mph 40% 0.00 in WeatherDisplay:10.37 W/m2 CLR
14:10 77.2 °F 51.0 °F 30.19 in East 3.7 mph 11.5 mph 40% 0.00 in WeatherDisplay:10.37 W/m2 CLR
14:15 78.8 °F 51.0 °F 30.19 in ESE 3.2 mph 11.5 mph 38% 0.00 in WeatherDisplay:10.37 W/m2 CLR
14:20 77.9 °F 50.9 °F 30.19 in ENE 3.6 mph 11.5 mph 39% 0.00 in WeatherDisplay:10.37 W/m2 CLR
14:26 77.4 °F 51.2 °F 30.18 in East 2.3 mph 11.5 mph 40% 0.00 in WeatherDisplay:10.37 W/m2 CLR
14:31 77.5 °F 50.6 °F 30.18 in ESE 2.6 mph 11.5 mph 39% 0.00 in WeatherDisplay:10.37 W/m2 CLR
14:36 77.2 °F 51.7 °F 30.18 in ESE 2.7 mph 11.5 mph 41% 0.00 in WeatherDisplay:10.37 W/m2 CLR
14:41 77.4 °F 51.2 °F 30.18 in ENE 2.6 mph 11.5 mph 40% 0.00 in WeatherDisplay:10.37 W/m2 CLR
14:46 77.5 °F 49.9 °F 30.18 in ENE 0.9 mph 11.5 mph 38% 0.00 in WeatherDisplay:10.37 W/m2 CLR
14:51 78.3 °F 52.0 °F 30.18 in WSW 1.6 mph 11.5 mph 40% 0.00 in WeatherDisplay:10.37 W/m2 CLR
14:56 77.0 °F 49.4 °F 30.18 in South 3.1 mph 11.5 mph 38% 0.00 in WeatherDisplay:10.37 W/m2 CLR
15:01 78.6 °F 51.6 °F 30.17 in South 1.7 mph 11.5 mph 39% 0.00 in WeatherDisplay:10.37 W/m2 CLR
15:07 77.7 °F 50.1 °F 30.17 in SSW 2.7 mph 11.5 mph 38% 0.00 in WeatherDisplay:10.37 W/m2 CLR
15:12 76.6 °F 49.8 °F 30.17 in SE 2.1 mph 11.5 mph 39% 0.00 in WeatherDisplay:10.37 W/m2 CLR
15:17 77.2 °F 50.3 °F 30.17 in SE 1.9 mph 11.5 mph 39% 0.00 in WeatherDisplay:10.37 W/m2 CLR
15:22 77.2 °F 51.0 °F 30.17 in WNW 3.6 mph 11.5 mph 40% 0.00 in WeatherDisplay:10.37 W/m2 CLR
15:27 76.1 °F 50.0 °F 30.17 in WSW 4.0 mph 11.5 mph 40% 0.00 in WeatherDisplay:10.37 W/m2 CLR
15:32 76.6 °F 49.8 °F 30.17 in SE 3.1 mph 11.5 mph 39% 0.00 in WeatherDisplay:10.37 W/m2 CLR
15:37 75.9 °F 49.8 °F 30.17 in SE 2.5 mph 11.5 mph 40% 0.00 in WeatherDisplay:10.37 W/m2 CLR
15:42 74.8 °F 48.9 °F 30.17 in NW 2.3 mph 11.5 mph 40% 0.00 in WeatherDisplay:10.37 W/m2 CLR
15:47 74.5 °F 49.2 °F 30.17 in SSE 2.8 mph 11.5 mph 41% 0.00 in WeatherDisplay:10.37 W/m2 CLR
15:53 76.5 °F 49.7 °F 30.17 in South 1.2 mph 11.5 mph 39% 0.00 in WeatherDisplay:10.37 W/m2 CLR
15:58 77.7 °F 50.8 °F 30.17 in South 1.9 mph 11.5 mph 39% 0.00 in WeatherDisplay:10.37 W/m2 CLR
16:03 76.3 °F 49.5 °F 30.16 in West 2.6 mph 11.5 mph 39% 0.00 in WeatherDisplay:10.37 W/m2 CLR
16:08 75.4 °F 49.4 °F 30.16 in NW 2.6 mph 11.5 mph 40% 0.00 in WeatherDisplay:10.37 W/m2 CLR
16:13 74.5 °F 49.2 °F 30.16 in NNW 2.3 mph 11.5 mph 41% 0.00 in WeatherDisplay:10.37 W/m2 CLR
16:18 74.3 °F 49.7 °F 30.16 in ESE 2.1 mph 11.5 mph 42% 0.00 in WeatherDisplay:10.37 W/m2 CLR
16:23 73.2 °F 48.1 °F 30.16 in North 4.2 mph 11.5 mph 41% 0.00 in WeatherDisplay:10.37 W/m2 CLR
16:29 72.9 °F 49.1 °F 30.16 in NW 1.2 mph 11.5 mph 43% 0.00 in WeatherDisplay:10.37 W/m2 CLR
16:34 72.5 °F 48.7 °F 30.16 in Calm   11.5 mph 43% 0.00 in WeatherDisplay:10.37 W/m2 CLR
16:39 71.8 °F 49.3 °F 30.16 in WNW 3.2 mph 11.5 mph 45% 0.00 in WeatherDisplay:10.37 W/m2 CLR
16:44 71.4 °F 48.3 °F 30.16 in ESE 1.9 mph 11.5 mph 44% 0.00 in WeatherDisplay:10.37 W/m2 CLR
16:49 71.4 °F 48.9 °F 30.16 in ESE 1.6 mph 11.5 mph 45% 0.00 in WeatherDisplay:10.37 W/m2 CLR
16:54 70.9 °F 48.5 °F 30.16 in ENE 0.5 mph 11.5 mph 45% 0.00 in WeatherDisplay:10.37 W/m2 CLR
16:59 70.5 °F 48.7 °F 30.16 in Calm   11.5 mph 46% 0.00 in WeatherDisplay:10.37 W/m2 CLR
17:04 70.3 °F 48.5 °F 30.17 in Calm   11.5 mph 46% 0.00 in WeatherDisplay:10.37 W/m2 CLR
17:10 70.0 °F 49.4 °F 30.17 in ESE 0.7 mph 11.5 mph 48% 0.00 in WeatherDisplay:10.37 W/m2 CLR
17:15 69.4 °F 49.9 °F 30.17 in Calm   11.5 mph 50% 0.00 in WeatherDisplay:10.37 W/m2 CLR
17:20 69.1 °F 50.2 °F 30.17 in Calm   11.5 mph 51% 0.00 in WeatherDisplay:10.37 W/m2 CLR
Daleville, Alabama USA
Compliments of Weather Underground - 4 mb